Location: Oshawa
(43.9000°N, 78.8670°W)
Time: 18:37:29
(UTC-05:00)

Amateur Radio Satellites - All Passes

Search period start: 12 December 2017 18:07
Search period end: 13 December 2017 18:07
Location: Oshawa, 43.9000°N, 78.8670°W

Satellite Date Start Highest point End Downlink Frequencies (MHz)
Time Altitude Azimuth
LilacSat-2 12 Dec 18:10:39 18:13:57 28° 264° (W) 18:17:17 437.200
ZACube-1 12 Dec 18:15:27 18:17:13 13° 62° (ENE) 18:18:59 437.345
XW-2A 12 Dec 18:22:31 18:24:49 18° 67° (ENE) 18:27:09 145.665 - 145.685
XW-2D 12 Dec 18:29:03 18:31:45 18° 267° (W) 18:34:27 145.860 - 145.880
SEEDS 12 Dec 18:31:58 18:36:07 63° 75° (ENE) 18:40:20 437.485
nSIGHT-1 12 Dec 18:34:35 18:37:48 72° 213° (SSW) 18:41:00 .
Oscar 11 12 Dec 18:38:46 18:41:01 14° 62° (ENE) 18:43:17 .
RS-15 12 Dec 18:39:06 18:49:41 32° 339° (NNW) 19:00:02 29.354- 29.394
KAITUO 1B 12 Dec 18:43:38 18:46:13 18° 267° (W) 18:48:49 145.475/437.950
NUDT-PHONESAT 12 Dec 18:44:11 18:46:45 18° 267° (W) 18:49:21 437.300
XW-2B 12 Dec 18:45:54 18:47:40 13° 270° (W) 18:49:27 145.730 - 145.750
AO-73 12 Dec 18:49:04 18:52:25 24° 67° (ENE) 18:55:46 145.935
CUTE 1.7 + AOD 2 12 Dec 18:50:21 18:54:28 49° 261° (W) 18:58:38 437.475
STARS 12 Dec 18:50:22 18:54:35 48° 288° (WNW) 18:58:45 437.465
O/OREOS (USA 219) 12 Dec 18:57:28 19:01:58 71° 249° (WSW) 19:06:25 437.305
AAUSAT CUBESAT 2 12 Dec 18:58:16 19:02:19 52° 73° (ENE) 19:06:24 437.432
ISS 12 Dec 19:07:53 19:11:04 46° 218° (SW) 19:14:13 437.550
CUTE-I 12 Dec 19:10:30 19:13:51 17° 270° (W) 19:17:12 437.470
CUBEBUG 2 12 Dec 19:14:05 19:18:09 45° 261° (W) 19:22:10 437.445
UWE-3 12 Dec 19:18:30 19:22:40 73° 258° (WSW) 19:26:49 435.000/436.395/437.385
HO-68 12 Dec 19:47:34 19:53:22 26° 267° (W) 19:59:12 435.675
PCSat 12 Dec 19:47:35 19:53:00 76° 302° (WNW) 19:58:27 145.827
ZACube-1 12 Dec 19:48:52 19:52:58 64° 259° (W) 19:57:06 437.345
STRAND 1 12 Dec 19:49:55 19:55:02 76° 104° (ESE) 20:00:07 437.568
XW-2A 12 Dec 19:54:29 19:57:20 26° 264° (W) 20:00:13 145.665 - 145.685
SEEDS 12 Dec 20:10:32 20:12:13 12° 271° (W) 20:13:54 437.485
Oscar 11 12 Dec 20:12:23 20:16:38 63° 259° (W) 20:20:57 .
DELFI C3 12 Dec 20:22:13 20:25:48 32° 70° (ENE) 20:29:23 145.870
AO-73 12 Dec 20:24:55 20:28:32 29° 264° (W) 20:32:10 145.935
FO-29 12 Dec 20:27:34 20:34:32 55° 98° (E) 20:40:38 435.910
AAUSAT CUBESAT 2 12 Dec 20:35:50 20:38:04 14° 270° (W) 20:40:19 437.432
BEESAT 3 12 Dec 20:43:11 20:47:04 53° 119° (ESE) 20:50:58 437.485
UNISAT 6 12 Dec 20:46:56 20:47:36 10° 89° (E) 20:48:16 437.425
RS-15 12 Dec 20:56:59 21:07:08 29° 15° (NNE) 21:16:52 29.354- 29.394
Max Valier Satellite 12 Dec 21:00:35 21:04:11 60° 74° (ENE) 21:07:48 145.860
BEESAT 2 12 Dec 21:17:51 21:21:29 34° 116° (ESE) 21:25:11 435.950
STRAND 1 12 Dec 21:30:39 21:33:35 16° 301° (WNW) 21:36:30 437.568
EO-88 12 Dec 21:33:54 21:37:31 74° 258° (WSW) 21:41:12 145.990 - 145.960
PCSat 12 Dec 21:33:56 21:37:20 16° 323° (NW) 21:40:44 145.827
AO-85 12 Dec 21:36:53 21:38:55 14° 109° (ESE) 21:40:58 145.980
DELFI C3 12 Dec 21:57:34 22:00:35 20° 267° (W) 22:03:38 145.870
ESTCUBE 1 12 Dec 21:59:14 22:02:55 25° 66° (ENE) 22:06:37 437.505/2401.250
PRISM 12 Dec 22:05:25 22:08:32 20° 94° (E) 22:11:36 437.425
LO-87 12 Dec 22:11:57 22:15:13 36° 72° (ENE) 22:18:29 145.935 - 145.965
FO-29 12 Dec 22:13:07 22:19:07 30° 300° (WNW) 22:24:33 435.910
TIGRISAT 12 Dec 22:17:48 22:22:07 89° 296° (WNW) 22:26:32 435.000
UNISAT 6 12 Dec 22:20:28 22:24:48 76° 285° (WNW) 22:29:11 437.425
BEESAT 3 12 Dec 22:21:55 22:24:52 20° 318° (NW) 22:27:50 437.485
AIST 2D 12 Dec 22:50:13 22:53:05 22° 95° (E) 22:55:56 435.315
BEESAT 2 12 Dec 22:55:47 22:59:15 27° 315° (NW) 23:02:44 435.950
SPROUT 12 Dec 23:03:48 23:07:23 27° 68° (ENE) 23:11:00 437.525
RS-15 12 Dec 23:10:57 23:22:46 60° 46° (NE) 23:33:54 29.354- 29.394
SO-50 12 Dec 23:11:31 23:14:43 18° 37° (NE) 23:17:57 436.795
NANOSAT C BR1 12 Dec 23:12:51 23:14:42 13° 90° (E) 23:16:32 145.865
AO-85 12 Dec 23:14:52 23:18:44 56° 308° (NW) 23:22:51 145.980
EO-79 12 Dec 23:25:38 23:28:45 20° 93° (E) 23:31:51 145.935-145.965
ESTCUBE 1 12 Dec 23:35:25 23:39:32 35° 263° (W) 23:43:43 437.505/2401.250
PRISM 12 Dec 23:40:08 23:43:52 34° 291° (WNW) 23:47:35 437.425
VELOX 1 12 Dec 23:41:43 23:45:57 44° 70° (ENE) 23:50:11 145.980
LO-87 12 Dec 23:46:46 23:48:45 14° 268° (W) 23:50:45 145.935 - 145.965
POLYITAN 1 12 Dec 23:47:27 23:51:19 34° 97° (E) 23:55:10 437.675
50 SAT 13 Dec 00:06:15 00:07:44 13° 65° (ENE) 00:09:13 437.505
QB50P2 13 Dec 00:12:44 00:16:58 74° 102° (ESE) 00:21:11 145.880/145.840
FALCONSAT 3 13 Dec 00:18:56 00:21:35 19° 170° (S) 00:24:14 435.103
DUCHIFAT 1 13 Dec 00:21:23 00:25:32 62° 101° (E) 00:29:41 145.980
AIST 2D 13 Dec 00:23:17 00:26:09 23° 291° (WNW) 00:29:00 435.315
UKube-1 13 Dec 00:33:54 00:37:16 23° 65° (ENE) 00:40:39 .
SPROUT 13 Dec 00:39:33 00:43:12 28° 264° (W) 00:46:52 437.525
DX 1 13 Dec 00:44:10 00:48:20 45° 71° (ENE) 00:52:31 434.975-435.025
NANOSAT C BR1 13 Dec 00:46:38 00:50:46 59° 287° (WNW) 00:54:54 145.865
SO-50 13 Dec 00:51:05 00:55:46 84° 235° (SW) 01:00:30 436.795
AO-85 13 Dec 00:59:09 01:00:09 11° 330° (NNW) 01:01:11 145.980
EO-79 13 Dec 01:00:44 01:04:37 37° 290° (WNW) 01:08:30 145.935-145.965
AO-91 13 Dec 01:09:25 01:12:05 20° 94° (E) 01:14:39 145.960
BUGSAT 1 13 Dec 01:10:20 01:14:16 50° 100° (E) 01:18:12 437.445
VELOX 1 13 Dec 01:19:23 01:22:34 19° 267° (W) 01:25:46 145.980
MOZHAYETS 4 13 Dec 01:20:56 01:23:43 16° 62° (ENE) 01:26:30
POLYITAN 1 13 Dec 01:23:36 01:26:55 23° 294° (WNW) 01:30:13 437.675
RS-15 13 Dec 01:24:03 01:34:52 46° 251° (WSW) 01:45:11 29.354- 29.394
BEESAT 13 Dec 01:24:14 01:26:37 14° 59° (ENE) 01:29:00 436.000
50 SAT 13 Dec 01:36:26 01:39:22 34° 262° (W) 01:42:19 437.505
Oscar 19 13 Dec 01:44:15 01:49:25 62° 101° (ESE) 01:54:34 437.125/150
ITUPSAT 1 13 Dec 01:49:34 01:53:16 23° 64° (ENE) 01:56:59 437.325
QB50P2 13 Dec 01:50:36 01:52:09 12° 299° (WNW) 01:53:42 145.880/145.840
YUBILEINY 13 Dec 01:53:16 01:59:24 22° 78° (ENE) 02:05:32 435.215
FALCONSAT 3 13 Dec 01:57:14 02:00:03 21° 186° (S) 02:02:52 435.103
DUCHIFAT 1 13 Dec 01:58:38 02:00:42 13° 298° (WNW) 02:02:45 145.980
UKube-1 13 Dec 02:09:05 02:13:05 36° 262° (W) 02:17:05 .
Gurwin Techsat 1B 13 Dec 02:09:44 02:15:05 76° 103° (ESE) 02:20:24 435.225
DX 1 13 Dec 02:21:42 02:24:43 18° 267° (W) 02:27:45 434.975-435.025
SO-50 13 Dec 02:34:42 02:35:29 10° 253° (WSW) 02:36:17 436.795
CUBESAT XI-V 13 Dec 02:37:45 02:41:26 24° 65° (ENE) 02:45:10 437.345
AO-91 13 Dec 02:45:44 02:48:34 23° 292° (WNW) 02:51:18 145.960
BUGSAT 1 13 Dec 02:46:53 02:49:13 15° 297° (WNW) 02:51:34 437.445
AO-7 13 Dec 02:50:02 02:57:09 30° 95° (E) 03:04:14 .
PCSat 13 Dec 02:51:24 02:55:37 22° 42° (NE) 02:59:50 145.827
ITAMSAT 1 13 Dec 02:53:27 02:56:30 16° 90° (E) 02:59:33 435.822/435.867
MOZHAYETS 4 13 Dec 02:55:54 03:00:24 59° 260° (W) 03:04:54
BEESAT 13 Dec 02:59:01 03:03:45 78° 257° (WSW) 03:08:32 436.000
Oscar 19 13 Dec 03:24:37 03:28:15 19° 299° (WNW) 03:31:53 437.125/150
KKS-1 13 Dec 03:25:03 03:27:40 16° 62° (ENE) 03:30:18 437.445
ITUPSAT 1 13 Dec 03:26:19 03:30:50 43° 261° (W) 03:35:22 437.325
FALCONSAT 3 13 Dec 03:37:07 03:38:25 12° 201° (SSW) 03:39:43 435.103
YUBILEINY 13 Dec 03:46:13 03:55:02 84° 278° (W) 04:03:58 435.215
Gurwin Techsat 1B 13 Dec 03:51:08 03:54:24 17° 301° (WNW) 03:57:39 435.225
M-CUBED/EXP-1 PRIME 13 Dec 04:02:22 04:06:58 81° 108° (ESE) 04:11:18 437.505
STARS 13 Dec 04:12:59 04:16:05 19° 64° (ENE) 04:19:10 437.465
CUBESAT XI-V 13 Dec 04:14:13 04:18:34 39° 262° (W) 04:22:59 437.345
ITAMSAT 1 13 Dec 04:31:18 04:36:28 69° 288° (WNW) 04:41:35 435.822/435.867
PCSat 13 Dec 04:34:09 04:39:33 72° 243° (WSW) 04:44:56 145.827
AO-7 13 Dec 04:42:10 04:50:26 66° 294° (WNW) 04:58:41 .
DOVE 4 13 Dec 04:47:19 04:51:35 37° 97° (E) 04:55:35 437.250
BEESAT 3 13 Dec 04:58:24 05:02:14 47° 51° (NE) 05:05:59 437.485
KKS-1 13 Dec 04:59:20 05:03:44 61° 259° (WSW) 05:08:10 437.445
XW-2C 13 Dec 05:10:40 05:10:55 10° 89° (E) 05:11:09 145.795 - 145.815
STRAND 1 13 Dec 05:30:15 05:33:35 18° 60° (ENE) 05:36:54 437.568
BEESAT 2 13 Dec 05:33:47 05:37:29 34° 47° (NE) 05:41:08 435.950
M-CUBED/EXP-1 PRIME 13 Dec 05:38:20 05:40:38 14° 306° (NW) 05:42:53 437.505
LilacSat-2 13 Dec 05:42:00 05:45:20 26° 95° (E) 05:48:37 437.200
CUTE-I 13 Dec 05:44:13 05:48:30 24° 93° (E) 05:52:44 437.470
YUBILEINY 13 Dec 05:47:21 05:53:19 20° 301° (WNW) 05:59:21 435.215
STARS 13 Dec 05:47:52 05:52:05 45° 261° (W) 05:56:19 437.465
XW-2D 13 Dec 05:58:41 06:02:19 39° 98° (E) 06:05:55 145.860 - 145.880
AO-85 13 Dec 06:03:50 06:07:51 27° 44° (NE) 06:12:06 145.980
NUDT-PHONESAT 13 Dec 06:11:22 06:14:52 35° 98° (E) 06:18:19 437.300
KAITUO 1B 13 Dec 06:11:45 06:15:20 38° 98° (E) 06:18:53 145.475/437.950
ITAMSAT 1 13 Dec 06:14:14 06:14:58 10° 306° (NW) 06:15:41 435.822/435.867
XW-2B 13 Dec 06:14:22 06:18:11 58° 100° (E) 06:21:57 145.730 - 145.750
DOVE 4 13 Dec 06:25:28 06:29:01 22° 296° (WNW) 06:32:24 437.250
XW-2F 13 Dec 06:28:04 06:31:56 82° 103° (ESE) 06:35:45 145.980 - 146.000
CUTE 1.7 + AOD 2 13 Dec 06:33:57 06:37:32 25° 94° (E) 06:41:05 437.475
AO-7 13 Dec 06:36:43 06:41:40 17° 316° (NW) 06:46:36 .
BEESAT 3 13 Dec 06:36:52 06:39:23 17° 249° (WSW) 06:41:52 437.485
FO-29 13 Dec 06:39:34 06:46:20 34° 62° (ENE) 06:53:10 435.910
XW-2C 13 Dec 06:41:39 06:45:29 63° 285° (WNW) 06:49:17 145.795 - 145.815
NO-84 13 Dec 06:51:57 06:54:30 25° 130° (SE) 06:57:12 435.350 FM
CUBEBUG 2 13 Dec 07:02:58 07:06:45 30° 96° (E) 07:10:35 437.445
UWE-3 13 Dec 07:06:52 07:10:02 20° 93° (E) 07:13:15 435.000/436.395/437.385
STRAND 1 13 Dec 07:07:07 07:12:13 67° 258° (WSW) 07:17:20 437.568
HO-68 13 Dec 07:11:43 07:18:49 60° 102° (ESE) 07:25:50 435.675
BEESAT 2 13 Dec 07:11:44 07:15:04 25° 246° (WSW) 07:18:21 435.950
XW-2A 13 Dec 07:14:46 07:16:52 15° 93° (E) 07:18:58 145.665 - 145.685
LilacSat-2 13 Dec 07:16:20 07:19:29 24° 292° (WNW) 07:22:38 437.200
CUTE-I 13 Dec 07:23:40 07:28:45 47° 291° (WNW) 07:33:49 437.470
XW-2D 13 Dec 07:33:40 07:36:10 17° 295° (WNW) 07:38:40 145.860 - 145.880
O/OREOS (USA 219) 13 Dec 07:35:22 07:36:35 11° 97° (E) 07:37:48 437.305
ZACube-1 13 Dec 07:35:48 07:39:10 21° 94° (E) 07:42:33 437.345
AO-85 13 Dec 07:43:50 07:48:30 50° 241° (WSW) 07:53:27 145.980
NUDT-PHONESAT 13 Dec 07:45:54 07:48:25 17° 294° (WNW) 07:50:56 437.300
KAITUO 1B 13 Dec 07:46:32 07:49:00 17° 295° (WNW) 07:51:27 145.475/437.950
UNISAT 6 13 Dec 07:46:59 07:48:31 12° 61° (ENE) 07:50:03 437.425
SEEDS 13 Dec 07:49:38 07:53:55 79° 284° (WNW) 07:58:08 437.485
XW-2B 13 Dec 07:50:17 07:51:51 12° 297° (WNW) 07:53:25 145.730 - 145.750
Oscar 11 13 Dec 07:58:38 08:02:01 22° 93° (E) 08:05:23 .
CUTE 1.7 + AOD 2 13 Dec 08:09:34 08:13:21 31° 291° (WNW) 08:17:06 437.475
AO-73 13 Dec 08:10:17 08:14:26 43° 98° (E) 08:18:39 145.935
AAUSAT CUBESAT 2 13 Dec 08:13:54 08:18:07 83° 104° (ESE) 08:22:15 437.432
FO-29 13 Dec 08:23:19 08:30:54 60° 260° (W) 08:38:41 435.910
NO-84 13 Dec 08:28:39 08:31:36 36° 331° (NNW) 08:34:46 435.350 FM
CUBEBUG 2 13 Dec 08:39:46 08:43:15 25° 292° (WNW) 08:46:46 437.445
UWE-3 13 Dec 08:42:37 08:46:37 39° 289° (WNW) 08:50:42 435.000/436.395/437.385
XW-2A 13 Dec 08:46:34 08:49:38 31° 289° (WNW) 08:52:43 145.665 - 145.685
PRISM 13 Dec 08:55:59 08:58:56 19° 64° (ENE) 09:01:52 437.425
HO-68 13 Dec 09:00:06 09:06:07 30° 301° (WNW) 09:12:07 435.675
O/OREOS (USA 219) 13 Dec 09:10:42 09:15:18 79° 294° (WNW) 09:19:54 437.305
ZACube-1 13 Dec 09:11:33 09:15:31 37° 290° (WNW) 09:19:34 437.345
TIGRISAT 13 Dec 09:17:30 09:21:49 88° 255° (WSW) 09:26:06 435.000
UNISAT 6 13 Dec 09:20:20 09:24:39 75° 259° (W) 09:28:56 437.425
AIST 2D 13 Dec 09:27:17 09:28:21 11° 64° (ENE) 09:29:25 435.315
DELFI C3 13 Dec 09:31:41 09:35:29 42° 98° (E) 09:39:13 145.870
Oscar 11 13 Dec 09:34:14 09:38:15 36° 290° (WNW) 09:42:14 .
AO-73 13 Dec 09:47:17 09:50:22 19° 295° (WNW) 09:53:30 145.935
AAUSAT CUBESAT 2 13 Dec 09:52:16 09:52:52 10° 300° (WNW) 09:53:28 437.432
Max Valier Satellite 13 Dec 10:02:22 10:06:06 70° 102° (ESE) 10:09:48 145.860
NANOSAT C BR1 13 Dec 10:06:46 10:08:27 12° 61° (ENE) 10:10:06 145.865
NO-84 13 Dec 10:07:40 10:09:41 15° 352° (N) 10:11:47 435.350 FM
FO-29 13 Dec 10:15:34 10:17:25 11° 280° (W) 10:19:17 435.910
EO-79 13 Dec 10:19:32 10:22:27 19° 65° (ENE) 10:25:22 145.935-145.965
PRISM 13 Dec 10:29:58 10:33:54 41° 261° (W) 10:37:51 437.425
EO-88 13 Dec 10:34:20 10:37:59 69° 285° (WNW) 10:41:37 145.990 - 145.960
POLYITAN 1 13 Dec 10:41:11 10:44:50 30° 69° (ENE) 10:48:31 437.675
O/OREOS (USA 219) 13 Dec 10:53:58 10:55:30 11° 314° (NW) 10:57:02 437.305
AIST 2D 13 Dec 10:57:38 11:01:03 51° 261° (W) 11:04:31 435.315
QB50P2 13 Dec 11:06:10 11:10:19 63° 73° (ENE) 11:14:28 145.880/145.840
DELFI C3 13 Dec 11:07:22 11:09:52 16° 295° (WNW) 11:12:20 145.870
LO-87 13 Dec 11:10:11 11:13:29 36° 98° (E) 11:16:46 145.935 - 145.965
nSIGHT-1 13 Dec 11:13:37 11:15:30 15° 133° (SE) 11:17:23 .
DUCHIFAT 1 13 Dec 11:14:01 11:18:03 52° 73° (ENE) 11:22:07 145.980
ESTCUBE 1 13 Dec 11:25:53 11:30:15 43° 98° (E) 11:34:33 437.505/2401.250
Oscar 19 13 Dec 11:26:06 11:28:55 15° 58° (ENE) 11:31:45 437.125/150
NANOSAT C BR1 13 Dec 11:39:25 11:43:35 70° 258° (WSW) 11:47:45 145.865
NO-84 13 Dec 11:45:40 11:48:05 17° 14° (NNE) 11:50:37 435.350 FM
ISS 13 Dec 11:48:49 11:51:33 24° 137° (SE) 11:54:16 437.550
EO-79 13 Dec 11:53:55 11:57:54 42° 261° (W) 12:01:54 145.935-145.965
Gurwin Techsat 1B 13 Dec 11:54:19 11:58:06 20° 61° (ENE) 12:01:55 435.225
BUGSAT 1 13 Dec 12:01:02 12:04:50 41° 71° (ENE) 12:08:38 437.445
YUBILEINY 13 Dec 12:01:46 12:04:11 11° 50° (NE) 12:06:36 435.215
AO-7 13 Dec 12:04:19 12:07:22 12° 39° (NE) 12:10:26 .
AO-91 13 Dec 12:06:32 12:10:43 29° 69° (ENE) 12:14:35 145.960
POLYITAN 1 13 Dec 12:17:12 12:20:37 24° 265° (W) 12:24:03 437.675
SPROUT 13 Dec 12:22:51 12:26:53 41° 98° (E) 12:30:54 437.525
LO-87 13 Dec 12:44:30 12:46:35 15° 294° (WNW) 12:48:39 145.935 - 145.965
QB50P2 13 Dec 12:44:57 12:46:30 12° 270° (W) 12:48:03 145.880/145.840
nSIGHT-1 13 Dec 12:48:07 12:51:20 76° 331° (NNW) 12:54:34 .
DUCHIFAT 1 13 Dec 12:51:49 12:54:02 14° 269° (W) 12:56:13 145.980
Oscar 19 13 Dec 13:02:25 13:07:32 81° 256° (WSW) 13:12:44 437.125/150
ESTCUBE 1 13 Dec 13:03:21 13:06:45 21° 296° (WNW) 13:10:08 437.505/2401.250
VELOX 1 13 Dec 13:06:11 13:10:38 73° 103° (ESE) 13:14:59 145.980
M-CUBED/EXP-1 PRIME 13 Dec 13:16:16 13:18:52 16° 55° (NE) 13:21:33 437.505
NO-84 13 Dec 13:22:24 13:26:02 47° 33° (NNE) 13:29:55 435.350 FM
ISS 13 Dec 13:24:39 13:27:51 50° 334° (NNW) 13:31:05 437.550
Gurwin Techsat 1B 13 Dec 13:32:20 13:37:35 61° 259° (WSW) 13:42:52 435.225
RS-15 13 Dec 13:37:02 13:47:01 31° 103° (ESE) 13:56:57 29.354- 29.394
BUGSAT 1 13 Dec 13:37:43 13:40:22 17° 267° (W) 13:43:00 437.445
AO-91 13 Dec 13:42:36 13:47:04 33° 263° (W) 13:51:12 145.960
AO-7 13 Dec 13:50:17 13:58:06 48° 61° (ENE) 14:05:57 .
UKube-1 13 Dec 13:54:21 13:58:13 31° 97° (E) 14:02:01 .
YUBILEINY 13 Dec 13:54:52 14:03:30 53° 75° (ENE) 14:12:01 435.215
SPROUT 13 Dec 13:59:28 14:02:29 19° 295° (WNW) 14:05:29 437.525
DX 1 13 Dec 14:06:37 14:10:58 69° 103° (ESE) 14:15:16 434.975-435.025
ITAMSAT 1 13 Dec 14:12:09 14:16:36 29° 65° (ENE) 14:21:03 435.822/435.867
50 SAT 13 Dec 14:22:43 14:25:49 53° 286° (WNW) 14:28:53 437.505
nSIGHT-1 13 Dec 14:25:15 14:27:55 23° 349° (NNW) 14:30:36 .
VELOX 1 13 Dec 14:44:27 14:46:27 13° 300° (WNW) 14:48:27 145.980
M-CUBED/EXP-1 PRIME 13 Dec 14:48:21 14:52:37 69° 253° (WSW) 14:57:11 437.505
MOZHAYETS 4 13 Dec 14:49:34 14:53:35 28° 95° (E) 14:57:34
BEESAT 13 Dec 14:58:09 15:01:58 23° 94° (E) 15:05:46 436.000
NO-84 13 Dec 14:59:51 15:03:13 28° 229° (SW) 15:06:45 435.350 FM
ISS 13 Dec 15:02:14 15:04:52 21° 353° (N) 15:07:30 437.550
SO-50 13 Dec 15:07:34 15:10:56 21° 112° (ESE) 15:14:21 436.795
ITUPSAT 1 13 Dec 15:25:00 15:29:32 42° 99° (E) 15:34:03 437.325
UKube-1 13 Dec 15:30:32 15:34:06 26° 294° (WNW) 15:37:38 .
AO-7 13 Dec 15:43:09 15:50:54 43° 261° (W) 15:58:45 .
DX 1 13 Dec 15:44:31 15:46:35 13° 300° (WNW) 15:48:38 434.975-435.025
RS-15 13 Dec 15:45:52 15:58:16 83° 305° (NW) 16:10:32 29.354- 29.394
ITAMSAT 1 13 Dec 15:51:04 15:55:54 38° 262° (W) 16:00:46 435.822/435.867
YUBILEINY 13 Dec 15:52:12 15:59:57 36° 276° (W) 16:07:38 435.215
DOVE 4 13 Dec 15:52:42 15:57:46 49° 71° (ENE) 16:02:43 437.250
HO-68 13 Dec 16:00:23 16:02:15 11° 45° (NE) 16:04:07 435.675
nSIGHT-1 13 Dec 16:02:16 16:04:52 22° 9° (N) 16:07:28 .
CUBESAT XI-V 13 Dec 16:08:51 16:13:25 45° 99° (E) 16:17:54 437.345
LilacSat-2 13 Dec 16:25:45 16:28:15 17° 65° (ENE) 16:30:46 437.200
MOZHAYETS 4 13 Dec 16:26:38 16:30:42 31° 292° (WNW) 16:34:46
BEESAT 13 Dec 16:35:25 16:39:51 40° 291° (WNW) 16:44:16 436.000
ISS 13 Dec 16:39:15 16:42:05 26° 14° (NNE) 16:44:55 437.550
XW-2D 13 Dec 16:41:18 16:44:19 23° 68° (ENE) 16:47:23 145.860 - 145.880
SO-50 13 Dec 16:46:46 16:51:04 47° 310° (NW) 16:55:28 436.795
KKS-1 13 Dec 16:49:18 16:52:47 22° 94° (E) 16:56:14 437.445
NUDT-PHONESAT 13 Dec 16:51:54 16:54:39 20° 67° (ENE) 16:57:25 437.300
KAITUO 1B 13 Dec 16:53:04 16:55:59 22° 68° (ENE) 16:58:58 145.475/437.950
XW-2B 13 Dec 16:56:40 17:00:05 33° 71° (ENE) 17:03:32 145.730 - 145.750
ITUPSAT 1 13 Dec 17:03:21 17:07:06 24° 296° (WNW) 17:10:52 437.325
CUTE-I 13 Dec 17:07:01 17:12:07 45° 69° (ENE) 17:17:12 437.470
XW-2F 13 Dec 17:09:42 17:13:18 44° 73° (ENE) 17:16:56 145.980 - 146.000
XW-2C 13 Dec 17:23:34 17:27:20 72° 74° (ENE) 17:31:08 145.795 - 145.815
CUTE 1.7 + AOD 2 13 Dec 17:28:00 17:31:16 22° 66° (ENE) 17:34:33 437.475
DOVE 4 13 Dec 17:31:29 17:35:37 23° 268° (W) 17:39:41 437.250
STARS 13 Dec 17:35:47 17:39:31 27° 96° (E) 17:43:12 437.465
PCSat 13 Dec 17:38:03 17:39:36 11° 102° (ESE) 17:41:11 145.827
nSIGHT-1 13 Dec 17:38:20 17:41:32 61° 28° (NNE) 17:44:43 .
O/OREOS (USA 219) 13 Dec 17:40:33 17:44:28 28° 57° (ENE) 17:48:20 437.305
HO-68 13 Dec 17:41:28 17:48:20 51° 66° (ENE) 17:55:13 435.675
CUBESAT XI-V 13 Dec 17:46:54 17:50:27 21° 296° (WNW) 17:53:59 437.345
LilacSat-2 13 Dec 17:58:39 18:02:13 38° 262° (W) 18:05:50 437.200
